HAWK-2A (47505 NORAD) Tracking and Keplerian Element Data

This shows tracking and keplerian element data for the satellite.

Feedback or suggestion? Click here.




ElementValue
Catalog47505
NameHAWK-2A
Epoch Orbit1198
Epoch Day101.8925453
Epoch Year2021
RAAN164.2925
Inclination97.4945
Eccentricity0.0010028
Argument of Perigee346.641
Mean Anonmoly13.4553
Mean Motion15.12144056
Decay Rate3.7E-06
L11 47505U 21006CW 21101.89254530 .00000370 00000-0 25202-4 0 9996
L22 47505 97.4945 164.2925 0010028 346.6410 13.4553 15.12144056 11984

Live tracking and technical data element details for HAWK-2A (NORAD 47505). HAWK-2A can be tracked NOW for your location showing map with azimuth and elevation plus other details from your city location.

Track the satellite on the map from your city or location and see movement details for azimuth, elevation, latitude, longitude, range, height, and movement on the map or in text.







IsCatalogInMostPopularTable: catalog: 47505, numindb: 14
Update: records affected: 1



GetName: 47505 HAWK-2A

Hit Count: updated at: Tue, 13 Apr 2021 03:46:38 GMT